Regional Weather Roundup
Issued by NWS

Home | Current Version | Previous Version | Graphics & Text | Print | Product List | Glossary On
Versions: 1 2 3 4 5 6 7 8 9 10 11 12 13 14 15 16 17 18 19 20 21 22 23 24 25 26 27 28 29 30 31 32 33 34 35 36 37 38 39 40 41 42 43 44 45 46 47 48 49 50
000
ASUS43 KIND 012159
RWRIN

WEATHER ROUNDUP FOR INDIANA
NATIONAL WEATHER SERVICE INDIANAPOLIS IN
600 PM EDT TUE SEP 01 2015

NOTE: "FAIR" INDICATES FEW OR NO CLOUDS BELOW 12,000 FEET WITH NO
SIGNIFICANT WEATHER AND/OR OBSTRUCTIONS TO VISIBILITY.

* - STATION DOES NOT REPORT WEATHER SUCH AS PRECIPITATION OR FOG.

+ - STATION NOT QUALITY CONTROLLED BY THE NATIONAL WEATHER SERVICE.
    USE DATA WITH CAUTION...ESPECIALLY DEWPOINT AND RELATIVE
    HUMIDITY OBSERVATIONS.

INZ001>003-010>013-019-020-012300-
NORTHWEST INDIANA

CITY           SKY/WX    TMP DP  RH WIND       PRES   REMARKS
GARY /AIRPORT/ MOSUNNY   88  68  51 SW14      30.02S

$$

LMZ046-743>745-012300-
SOUTHERN LAKE MICHIGAN

STATION/POSITION TIME  TEMP    WIND        PRES    WAVE
                       AIR SEA DIR/SP/G            HT
                 (UTC) (F)     (DEG/KT/KT) (MB)    (FT)
BURNS HARBOR     2100   83     200/ 10/ 12 1016.9F
5NW MICH CITY    2100   78 73  210/  4/  6   N/A     1

$$

INZ004-005-014>016-021>024-012300-
NORTH CENTRAL INDIANA

CITY           SKY/WX    TMP DP  RH WIND       PRES   REMARKS
ELKHART        SUNNY     84  72  65 W7        30.03F
GOSHEN         PTSUNNY   84  71  65 S5        30.03F
PERU/GRISSOM   SUNNY     86  68  54 SW9       30.05S
SOUTH BEND     MOSUNNY   84  70  62 SW10      30.04S

$$

INZ006>009-017-018-025>027-012300-
NORTHEAST INDIANA

CITY           SKY/WX    TMP DP  RH WIND       PRES   REMARKS
ANGOLA *+      SUNNY     84  72  65 S9        30.05S
FORT WAYNE     MOSUNNY   83  70  64 SW12      30.07S

$$

INZ028-029-035-036-043>045-051>053-012300-
WEST CENTRAL INDIANA

CITY           SKY/WX    TMP DP  RH WIND       PRES   REMARKS
CRAWFORDSVL +  MOSUNNY   82  58  44 S7        30.08S
GREENCASTLE +  MOSUNNY   82  63  51 CALM      30.09F
LAFAYETTE      MOSUNNY   83  65  54 SW9       30.06S
TERRE HAUTE    SUNNY     87  66  49 S10       30.07F

$$

INZ030>032-037>040-046>048-054>057-064-065-012300-
CENTRAL INDIANA

CITY           SKY/WX    TMP DP  RH WIND       PRES   REMARKS
COLUMBUS       MOSUNNY   84  64  51 W12       30.08F
GREENWOOD *+   PTSUNNY   82  61  47 W6        30.10R
INDIANAPOLIS   PTSUNNY   84  64  50 SW8       30.08S
-EAGLE CREEK   MOSUNNY   85  66  53 VRB5      30.07S
KOKOMO *+      SUNNY     88  66  48 SW9       30.06S
MT COMFORT *+  MOSUNNY   84  54  34 SW7       30.08F
SHELBYVILLE    PTSUNNY   85  69  58 W7        30.08S

$$

INZ033-034-041-042-049-050-058-059-012300-
EAST CENTRAL INDIANA

CITY           SKY/WX    TMP DP  RH WIND       PRES   REMARKS
MUNCIE         MOSUNNY   80  65  59 SW8       30.09S

$$

INZ060-061-067>069-081>083-085>088-012300-
SOUTHWEST INDIANA

CITY           SKY/WX    TMP DP  RH WIND       PRES   REMARKS
EVANSVILLE     SUNNY     88  66  48 SW3       30.07F
HUNTINGBURG *+ SUNNY     88  70  55 NW3       30.09S

$$

INZ062-063-066-070>080-084-089>092-012300-
SOUTH CENTRAL AND SOUTHEAST INDIANA

CITY           SKY/WX    TMP DP  RH WIND       PRES   REMARKS
BLOOMINGTON    SUNNY     86  67  52 SW5       30.09F
MADISON *+     MOSUNNY   88  61  40 CALM      30.10F
SEYMOUR +      SUNNY     90  66  45 SW6       30.08S

$$



USA.gov is the U.S. government's official web portal to all federal, state and local government web resources and services.